Location: Boiro
(42.6475°N, 8.8834°W)
Time: 13:28:48
(UTC+01:00)

Vanguard 1 Rocket - Pass Details

Date: 08 December 2021
Orbit: 651 x 4224 km, 34.3° (Epoch: 21 January)

Event Time Altitude Azimuth Distance (km) Brightness Sun altitude
Exits shadow 04:56:12 61° 179° (S) 2,600 9.4 -42.7°
Maximum altitude 04:56:31 61° 174° (S) 2,626 9.4 -42.6°
Drops below altitude 10° 05:16:14 10° 101° (E) 6,815 12.5 -39.0°
Sets 05:22:29 0° 99° (E) 8,182 13.2 -37.8°
